Weather in Vizimbir'

Russia / Mari El Republic     56°39′31″N   49°03′35″E
temp.,
°C
wind,
m/s
gust,
m/s
humid.,
%
clouds,
%
prec.,
mm/h
press.,
hPa
HPBL,
m
16 may, sun
sun1600:00+18s4126676 0.0 1015239
03:00+16ssw387095 0.0 1016126
06:00+19s4106337 0.0 1015276
09:00+24s611425 0.0 1014638
12:00+28ssw7143447 0.0 10141725
15:00+28sw6133763 0.0 10142274
18:00+23sw51154100 0.0 1014535
21:00+17wsw3986100 0.0 1015200
17 may, mon
mon1700:00+16wsw388248 0.0 1016157
03:00+15sw228244 0.0 101635
06:00+17sw237519 0.0 1017147
09:00+23w23565 0.0 1018788
12:00+25wnw35485 0.0 10181554
15:00+26nw46443 0.0 10171487
18:00+23nnw35594 0.0 1017198
21:00+18nne22655 0.0 101813
18 may, tue
tue1800:00+17ene226918 0.0 101913
03:00+15ene3478100 0.3 101949
06:00+16ene4880100 0.0 1020195
09:00+21e4560100 0.0 1020566
12:00+24e4452100 0.0 1020843
15:00+25e4449100 0.0 10201097
18:00+22e3663100 0.0 1019177
21:00+18e3668100 0.0 102090
19 may, wed
wed1900:00+16ese387050 0.0 1020141
03:00+14ese4107245 0.0 1020183
06:00+16ese41172100 0.0 1021336
09:00+21ese685286 0.0 1020680
12:00+24ese673976 0.0 10191072
15:00+24se673893 0.0 10191227
18:00+21ese495332 0.0 1017447
21:00+16ese4126740 0.0 1017239
20 may, thu
thu2000:00+15se4137648 0.0 1016261
03:00+15se514730 0.0 1016350
06:00+17se512670 0.0 1015363
09:00+21sse695524 0.0 1015830
12:00+23sse7105232 0.0 10141609
15:00+21ssw795466 0.3 10151537
18:00+15sse5127592 0.0 1015460
21:00+13sse5138997 0.0 1015378